GFSSGP_sfc_dewp_057.txt.gz
Dewpoint
58 45 41 32 27 19 14 8 7 12 15 26 31 35 34 33 35 38 48 44 44 51 68 69 74 75 75 74 74 73 74 75 75 76 76 75 74 73 71 70 68 67 65 64 62 61 61 62 61
38 35 34 28 21 16 10 8 6 14 29 33 35 37 39 36 38 44 46 47 47 56 66 65 74 74 74 74 74 73 73 73 74 74 74 73 73 71 70 69 67 65 63 62 62 62 61 61 61
52 38 26 20 20 15 11 7 7 19 29 32 33 38 39 41 42 38 46 49 50 58 63 65 74 74 74 74 74 73 73 72 72 73 73 72 72 71 70 68 67 64 64 64 64 63 62 62 62
40 29 26 22 14 15 13 11 12 23 28 34 35 36 36 41 44 43 48 48 50 54 59 69 73 74 74 74 73 73 73 72 72 72 72 71 70 70 69 68 68 67 65 64 64 64 64 64 65
35 26 18 17 16 15 13 11 22 24 31 34 36 36 37 41 46 46 46 44 49 50 57 67 73 73 74 73 73 72 72 72 71 71 71 70 70 70 69 69 68 67 66 65 65 65 66 66 66
33 26 19 14 13 13 13 12 13 18 30 32 34 37 39 42 45 44 43 45 45 49 56 67 73 73 73 73 73 72 72 71 71 71 71 70 70 70 69 69 68 68 68 68 67 67 67 67 67
35 26 19 17 15 14 13 13 12 19 28 31 34 36 40 41 44 43 42 44 44 49 55 66 70 70 73 73 73 72 72 72 71 71 70 70 70 70 70 70 69 69 69 69 69 69 69 69 68
36 32 25 19 18 17 15 13 11 18 27 31 36 36 38 41 44 44 40 42 43 48 52 57 68 65 65 67 73 72 72 72 71 71 71 70 70 70 70 69 70 70 70 70 70 70 70 70 69
37 33 27 22 21 19 17 17 17 16 22 29 34 37 40 45 47 42 40 41 43 46 51 56 59 63 63 61 65 72 72 72 71 71 71 69 62 63 63 65 67 70 70 70 70 70 71 70 69
36 33 31 27 23 20 20 19 16 17 26 31 35 37 39 45 44 40 39 41 43 44 47 52 58 61 63 58 63 68 64 65 66 64 65 63 62 61 59 63 68 70 70 70 70 71 70 69 63
36 33 32 30 29 26 24 21 19 15 21 30 34 37 38 41 44 42 41 41 42 43 45 49 65 65 63 60 58 61 64 64 66 67 68 67 60 61 59 59 62 64 68 63 67 67 66 65 63
30 34 34 33 33 31 28 26 23 20 18 27 34 37 38 40 41 41 41 41 42 44 48 50 60 70 70 62 60 61 61 63 64 65 70 67 65 65 64 59 59 66 62 64 63 61 65 65 64
24 27 30 33 33 34 33 32 31 27 23 19 29 35 37 39 41 42 42 42 42 43 44 47 54 71 72 72 63 64 65 61 63 64 70 67 63 66 62 64 60 61 61 61 62 61 63 65 63
19 20 23 28 29 32 33 34 34 34 32 27 23 27 32 36 39 42 44 45 46 47 47 49 55 72 71 72 74 70 70 63 63 62 66 71 67 68 62 64 62 60 59 59 59 61 61 62 62
20 16 18 22 23 27 32 32 34 36 35 33 30 30 32 36 39 40 42 46 47 47 50 54 57 64 72 71 70 71 65 64 62 62 71 71 72 70 69 64 63 62 62 66 63 65 63 61 62
16 20 14 16 22 24 29 29 32 34 35 35 34 34 35 38 38 39 41 45 49 50 52 55 49 50 63 70 67 65 62 63 63 63 64 70 72 72 71 64 64 64 63 60 59 59 58 59 59
9 11 17 14 15 21 24 29 32 32 33 35 36 36 34 36 38 43 41 43 48 53 56 55 58 54 60 69 64 66 70 65 62 63 62 70 68 69 70 65 65 70 62 61 60 60 61 59 58
1 2 6 13 15 15 18 24 29 32 32 33 34 35 35 35 34 40 41 45 48 52 62 64 61 66 68 64 68 60 60 63 63 62 63 69 68 68 70 66 69 68 63 62 61 65 61 59 58
10 5 4 9 12 15 16 19 23 29 32 33 32 35 37 38 38 38 41 45 48 57 62 64 63 70 66 60 57 57 59 62 63 63 67 67 69 69 71 67 68 68 67 67 68 64 63 59 65
12 11 11 7 9 16 17 16 21 23 28 31 33 33 34 36 38 40 43 47 53 57 61 64 67 69 69 62 65 61 62 60 63 64 68 68 69 69 69 70 69 70 65 68 66 67 62 65 69
14 13 13 10 10 15 20 18 20 21 25 28 31 33 34 36 37 40 41 47 50 55 59 61 65 68 69 69 65 66 66 67 64 65 67 68 69 69 70 70 69 69 68 65 67 67 67 63 66
13 11 11 11 14 14 19 16 22 22 23 27 29 31 32 34 37 39 41 46 50 49 51 59 63 67 67 71 66 71 65 64 63 65 67 68 69 70 70 70 69 71 66 70 67 66 67 67 66
12 12 13 12 13 17 18 16 20 22 23 24 28 29 31 34 36 35 36 39 40 45 48 55 61 65 68 70 70 65 69 63 63 63 72 72 71 70 69 70 71 70 66 69 68 68 68 66 65
13 13 13 12 11 12 17 19 17 20 23 23 25 27 29 30 32 34 35 36 35 36 39 52 59 64 66 69 69 73 72 70 65 67 68 67 69 69 70 69 70 71 68 68 66 68 67 66 67
15 17 13 12 9 14 20 19 23 23 23 23 24 26 27 28 28 29 30 32 36 38 41 45 56 61 65 67 68 68 72 74 74 71 67 68 68 67 70 71 70 67 68 67 67 69 67 66 63
16 22 21 18 11 12 20 18 20 24 24 23 22 25 26 27 29 31 33 37 36 40 43 45 53 61 66 67 68 69 71 67 68 71 66 65 64 66 71 69 67 66 66 66 67 67 63 66 64
16 18 26 22 24 24 22 18 21 22 22 23 23 26 31 35 39 42 44 48 50 49 47 51 53 61 66 68 69 70 71 72 69 72 72 65 68 66 67 66 66 66 65 66 67 61 63 64 64
24 15 22 16 13 15 17 18 16 21 21 23 25 27 31 33 35 42 50 55 56 51 49 56 59 64 67 68 68 68 68 68 68 69 69 68 68 65 65 64 65 65 63 63 64 62 63 64 64
18 17 19 23 20 17 15 17 23 21 23 26 24 29 30 31 31 43 54 57 57 51 54 61 64 65 66 67 67 68 67 67 67 66 65 66 66 64 62 62 64 63 62 62 63 63 63 61 63
24 23 27 25 17 17 19 16 27 26 25 26 30 31 30 31 31 36 55 56 57 56 59 63 64 64 65 66 66 66 65 65 66 65 65 65 64 63 61 61 60 59 59 61 63 62 61 60 61

GFSSGP_sfc_dewp_060.txt.gz
Dewpoint
54 43 41 39 26 23 17 12 10 9 9 13 23 28 29 32 40 44 47 47 63 64 70 72 75 75 75 74 74 75 76 76 76 76 76 76 75 74 73 73 71 68 66 65 63 61 60 60 60
41 34 34 31 24 19 17 11 11 7 14 16 27 31 35 38 43 44 43 47 65 65 69 70 75 75 75 74 74 74 75 75 76 76 76 75 75 74 72 71 69 67 65 63 61 61 61 61 60
51 36 31 23 22 19 15 13 8 7 14 29 31 34 35 40 44 44 46 51 67 67 65 70 75 75 75 74 74 73 74 74 75 75 75 75 74 73 72 71 70 66 64 63 62 62 62 61 61
43 39 29 23 20 16 18 17 13 7 12 31 32 33 36 42 44 46 47 49 60 63 63 72 74 74 74 74 74 73 73 73 74 74 74 74 73 72 71 70 69 68 65 65 64 64 64 63 64
38 31 20 17 17 19 18 15 12 12 23 25 31 33 36 41 47 47 48 49 54 58 61 71 74 74 74 74 74 74 73 73 73 73 73 73 72 72 71 70 69 69 68 67 65 67 67 67 67
35 30 23 17 16 15 15 14 12 14 22 27 32 34 36 42 46 45 45 48 49 57 64 71 73 74 74 74 74 73 73 72 72 72 72 72 71 71 70 69 69 69 69 68 68 68 69 69 69
36 32 24 18 16 17 14 15 13 11 13 19 30 33 39 42 44 44 43 47 49 56 67 71 71 73 74 73 73 73 72 72 72 71 71 71 71 71 70 69 69 69 69 69 69 69 69 69 69
38 34 28 25 21 17 18 19 18 17 12 18 29 32 36 46 45 43 40 43 46 52 67 71 71 69 70 71 73 73 72 72 72 71 71 71 71 71 70 69 70 70 70 70 69 70 70 70 70
38 35 32 28 25 23 21 20 19 19 17 16 28 34 41 44 45 41 40 39 42 48 58 67 68 68 66 65 69 73 72 72 72 71 71 70 68 67 66 68 67 70 70 70 70 70 70 71 71
32 34 33 31 29 27 22 21 21 19 18 18 22 35 39 43 44 43 41 41 42 46 52 56 67 66 64 60 66 70 68 70 69 68 68 69 66 64 63 65 68 70 70 70 70 70 71 70 67
33 34 34 32 31 30 28 26 22 21 18 17 26 33 38 40 46 43 41 41 43 46 49 56 67 69 65 62 65 69 66 67 67 67 67 68 64 63 63 62 64 67 69 67 68 68 68 67 66
24 30 33 33 32 31 31 31 28 25 23 21 22 33 40 42 47 42 42 45 49 48 51 58 66 69 69 65 64 68 67 67 66 67 68 67 66 64 63 61 63 64 64 66 65 65 66 66 66
14 17 24 29 32 33 33 32 32 30 30 26 24 26 39 42 44 47 48 47 47 53 51 55 69 71 73 74 72 69 68 67 67 68 68 67 66 65 64 65 62 64 63 65 64 64 64 65 65
17 15 17 18 22 27 30 32 33 34 33 33 31 29 28 39 42 46 49 52 63 61 62 60 70 73 74 74 75 75 75 69 70 68 69 69 66 68 65 64 66 63 64 64 64 63 64 65 65
15 18 19 17 17 19 24 28 29 34 35 35 35 33 32 31 41 43 47 56 59 60 69 64 70 74 74 74 74 74 72 71 69 70 73 70 69 67 68 66 63 66 65 68 65 65 65 67 66
13 13 14 17 17 17 20 21 27 31 34 35 35 36 35 34 33 40 45 57 61 60 61 65 55 72 75 75 74 73 71 70 70 70 72 73 70 71 70 68 67 65 69 65 66 66 66 65 64
12 6 5 6 12 15 16 19 24 27 31 35 37 38 36 37 39 44 46 50 60 64 64 65 66 65 71 73 71 71 71 71 71 71 69 72 72 70 71 69 68 71 66 67 66 65 65 64 65
6 5 2 1 3 5 11 15 19 26 28 33 35 36 38 38 39 44 48 49 58 64 67 67 69 69 73 69 74 71 70 70 70 71 70 71 70 71 70 70 69 71 69 67 67 66 66 65 64
12 11 9 10 7 6 8 12 17 21 25 26 35 36 37 40 42 42 47 49 53 63 66 69 68 71 71 71 68 67 65 67 69 70 70 71 71 70 72 69 70 70 68 68 69 68 67 65 64
15 13 14 15 13 12 14 11 14 19 23 25 31 36 38 39 40 45 47 55 60 65 66 68 68 70 71 71 70 69 70 67 68 70 71 71 71 71 71 70 69 70 69 70 69 67 64 64 67
15 14 14 13 14 13 13 13 15 16 22 22 28 34 37 39 41 42 47 55 60 61 65 65 68 69 71 70 70 70 71 72 71 70 71 71 71 71 71 70 71 70 69 68 69 68 66 65 67
14 14 12 12 12 9 12 9 18 17 22 25 25 31 35 36 39 43 47 53 60 59 62 64 67 67 69 71 67 68 67 66 69 70 70 71 71 70 70 70 70 70 69 69 68 67 68 67 64
17 13 12 11 12 12 10 10 13 20 20 25 26 29 34 35 36 38 43 47 51 56 57 61 65 67 67 69 68 66 69 67 72 70 72 71 71 71 69 70 71 70 69 71 69 69 67 67 65
15 13 12 12 10 8 10 10 10 14 22 24 27 27 30 34 34 36 40 46 47 47 51 57 60 65 66 69 69 69 69 69 68 69 70 70 70 69 69 69 70 71 70 70 69 69 68 67 66
16 15 11 8 8 12 12 7 12 17 20 25 26 28 30 31 33 36 38 38 44 47 51 55 62 62 66 67 69 69 73 70 74 71 69 69 68 68 69 69 71 71 71 69 69 69 68 66 66
21 18 19 16 16 22 24 21 11 19 19 24 28 28 33 31 32 35 38 44 39 44 49 50 55 63 65 65 68 70 72 70 72 70 69 69 68 69 70 71 71 70 69 68 69 69 67 67 66
21 17 20 18 21 21 24 27 25 25 25 24 26 26 30 33 37 36 37 46 49 52 59 59 57 60 63 68 70 70 71 72 71 72 73 70 70 70 71 70 69 68 67 68 68 67 66 66 66
21 22 22 26 21 18 18 20 21 26 26 25 28 31 34 37 36 40 43 51 57 59 62 62 59 61 68 69 70 70 71 72 72 72 71 71 70 69 69 69 68 66 67 67 67 66 65 65 65
20 17 18 19 20 15 16 16 29 29 31 31 26 30 35 34 32 35 44 53 57 59 57 61 58 66 68 69 70 71 71 70 70 70 69 69 70 68 67 66 66 65 64 65 66 65 64 64 64
31 25 30 28 20 24 26 25 30 37 37 36 27 30 32 32 31 31 54 57 56 57 55 60 64 65 68 69 69 69 69 69 69 68 69 69 68 66 65 65 64 63 63 65 64 63 63 62 63

GFSSGP_sfc_dewp_063.txt.gz
Dewpoint
56 44 42 41 31 26 22 21 17 13 11 19 30 32 39 43 42 44 50 62 63 67 71 74 75 75 74 74 76 76 76 76 76 76 76 76 75 74 73 73 71 68 67 65 63 62 61 62 62
49 41 35 34 25 23 22 22 17 16 12 26 30 31 36 43 44 45 59 62 63 68 71 72 75 75 74 74 75 76 76 76 76 76 76 76 75 74 73 71 70 68 66 65 62 61 62 62 61
53 46 31 29 25 22 21 21 20 19 18 30 33 34 38 44 45 43 60 62 64 67 69 72 75 74 74 74 74 75 75 76 76 76 76 75 75 74 73 72 70 67 66 63 62 62 62 62 61
46 45 40 24 22 22 23 23 22 18 16 33 33 35 38 46 44 52 65 62 62 66 68 74 75 74 74 74 73 74 75 75 76 75 75 75 74 74 73 71 70 68 65 64 64 64 64 63 63
43 37 26 21 21 22 23 22 19 16 14 31 30 33 39 46 47 62 64 63 62 62 68 73 75 74 74 74 73 73 73 74 75 75 75 74 74 73 72 71 69 68 68 66 66 66 67 67 67
42 34 27 22 20 20 19 17 18 17 17 23 28 33 38 47 46 53 60 61 62 61 70 71 74 74 74 74 73 73 73 73 73 74 74 74 73 73 72 71 70 69 69 69 68 68 68 69 69
44 35 30 26 22 20 19 19 19 19 17 17 20 28 43 44 45 48 54 56 60 66 69 69 72 73 74 74 73 73 73 72 72 72 73 73 72 72 71 71 70 70 70 70 69 69 69 70 70
41 37 33 32 28 25 26 23 21 20 19 20 20 26 42 45 46 46 48 51 61 68 69 70 69 71 72 72 74 73 73 72 72 72 72 72 72 71 71 70 70 70 70 70 70 70 70 70 70
34 37 35 34 31 28 27 25 24 23 20 21 21 34 46 48 44 43 46 49 61 68 69 69 69 69 70 70 71 73 72 72 72 72 72 71 69 69 68 69 69 70 70 70 70 70 70 71 71
32 31 36 36 35 32 31 30 30 23 24 22 21 38 42 46 48 44 43 43 55 66 68 68 68 68 66 65 68 70 70 70 70 70 69 69 67 66 67 68 70 70 70 71 71 71 71 70 68
30 29 30 34 35 34 32 31 31 28 22 24 23 28 39 42 47 46 41 40 47 62 66 68 68 66 63 61 66 69 69 69 70 68 68 68 66 65 65 64 66 66 69 67 69 69 69 68 68
16 20 29 32 34 34 33 33 32 32 31 30 30 30 33 40 40 48 50 47 44 52 58 66 66 64 62 61 65 67 66 66 67 67 66 67 66 63 62 62 62 64 66 66 65 67 67 67 66
17 17 16 18 22 27 32 32 33 32 34 34 32 32 32 36 41 43 46 50 48 53 59 63 66 65 63 63 65 66 66 65 65 65 66 65 65 63 61 61 62 62 64 65 64 64 65 66 65
13 13 15 17 15 16 17 23 29 32 35 35 34 34 34 34 43 46 46 48 46 52 55 57 57 66 65 67 65 66 66 66 66 66 66 65 64 64 62 60 62 62 61 63 64 62 63 63 64
18 15 15 14 17 18 18 18 19 26 31 34 34 34 34 35 37 40 44 49 51 50 55 54 58 69 68 67 68 70 70 69 67 66 67 66 64 65 63 63 60 62 63 62 64 63 61 64 63
15 14 11 14 18 18 18 16 18 22 28 31 32 34 35 37 37 39 42 45 52 53 55 63 67 70 69 68 69 69 70 68 67 67 68 68 66 65 66 63 63 61 64 64 63 63 62 62 64
14 11 10 10 10 11 12 16 17 19 21 27 27 33 35 36 38 40 43 46 53 53 55 60 69 69 70 70 71 71 70 69 68 67 67 70 68 66 65 67 66 63 61 65 63 63 62 62 62
11 8 7 7 8 4 2 2 6 15 17 21 25 27 34 36 37 39 44 44 53 55 57 57 60 70 71 70 69 68 67 67 66 67 68 70 70 68 66 66 67 68 64 64 64 62 62 61 61
15 15 15 15 15 14 14 13 13 14 13 14 21 30 30 32 33 35 39 46 48 59 58 57 60 64 62 64 64 64 63 62 65 66 67 67 70 70 68 68 68 67 67 65 64 64 62 62 61
17 16 15 16 16 13 14 13 14 14 14 14 14 20 30 33 34 35 36 38 50 58 57 57 56 61 62 64 64 62 62 62 63 66 66 68 69 70 68 68 68 68 67 65 65 64 62 61 62
16 15 16 16 16 15 14 14 14 14 14 14 15 15 24 35 35 36 39 39 44 60 61 60 61 62 61 64 66 64 64 66 67 66 66 69 69 70 70 69 68 68 67 66 65 64 61 60 62
17 22 22 18 13 11 14 9 12 13 13 14 15 14 18 26 34 34 35 41 56 57 57 59 61 60 62 63 64 63 61 61 64 66 68 69 69 69 69 69 68 68 67 66 66 65 63 63 61
26 25 20 19 15 11 10 10 10 15 12 12 14 17 20 24 32 34 35 40 54 54 57 58 60 60 61 64 63 62 63 64 64 67 68 68 69 69 69 69 68 68 67 67 66 65 65 64 62
26 27 24 19 12 9 9 9 8 9 10 13 14 15 19 24 32 33 34 38 50 53 54 55 57 59 59 62 65 62 61 64 66 66 68 68 68 69 69 68 68 69 68 67 67 66 64 64 63
20 26 24 18 13 12 12 17 20 25 18 12 13 15 14 16 23 33 33 36 45 45 49 52 54 57 62 62 64 64 61 64 65 67 68 68 67 67 68 68 68 69 67 67 67 65 64 63 62
17 23 24 18 15 15 16 16 15 23 26 26 25 20 13 15 23 32 31 31 37 42 45 50 53 52 61 61 64 64 65 68 66 69 68 68 67 67 68 68 68 68 68 66 66 65 64 64 63
14 20 21 23 25 25 23 20 22 23 26 32 34 23 18 19 35 28 33 38 37 40 43 45 46 58 60 64 63 68 66 69 68 68 68 67 67 67 68 68 68 68 66 66 64 64 63 63 62
25 24 19 30 20 19 18 19 20 35 38 38 38 38 33 27 34 37 40 46 52 54 56 56 53 60 61 63 67 68 68 69 70 70 68 67 68 68 68 68 67 65 65 64 63 63 63 62 62
27 28 31 33 30 23 19 17 37 38 39 39 37 39 40 36 33 33 41 53 54 56 56 57 55 59 65 68 68 68 69 70 69 69 68 68 68 68 68 66 64 64 63 63 62 61 62 61 61
29 27 31 28 24 26 25 23 38 39 39 40 38 41 44 37 32 42 55 56 56 56 56 57 55 65 67 68 68 69 69 68 68 67 66 67 67 66 65 64 62 63 63 63 61 61 61 61 61

GFSSGP_sfc_dewp_069.txt.gz
Dewpoint
62 45 41 40 31 27 24 26 25 23 21 18 21 25 34 33 44 40 54 53 63 63 71 74 76 76 76 76 75 75 75 75 75 75 75 75 75 73 73 73 72 70 68 66 65 64 63 62 62
61 45 35 33 28 23 21 25 23 23 24 24 23 20 42 44 47 56 55 59 61 65 71 72 75 76 76 76 75 75 75 75 75 75 75 75 74 74 72 72 70 69 67 66 65 64 63 63 63
58 47 30 31 28 23 20 24 23 24 25 24 20 21 35 44 51 55 56 59 61 66 69 70 75 75 76 76 75 75 75 75 75 75 75 75 74 74 73 72 71 68 67 65 64 63 64 64 63
47 44 38 31 25 25 24 24 23 21 21 20 18 23 39 50 55 55 58 59 62 66 67 71 74 75 75 76 75 75 75 75 75 75 75 75 74 74 73 72 71 69 67 66 64 64 64 64 63
44 37 34 27 27 26 24 23 22 21 19 20 21 20 30 48 58 59 57 59 60 66 66 71 73 74 75 75 75 75 75 75 75 75 75 75 75 74 73 72 70 68 68 66 65 65 66 66 65
42 35 28 26 19 24 26 26 23 22 21 24 19 21 32 54 59 58 56 55 59 64 66 70 73 73 74 75 75 75 75 75 75 75 75 75 75 74 73 72 70 69 69 69 68 68 68 68 68
43 33 29 26 23 27 28 29 28 26 25 28 21 21 38 57 59 57 55 55 58 62 66 69 71 72 73 73 74 75 75 75 75 75 75 75 75 74 73 73 71 70 70 70 70 70 69 69 69
44 39 36 33 27 28 32 32 29 29 32 28 25 23 30 48 60 56 57 57 61 64 66 68 70 71 71 71 73 74 75 75 75 75 75 74 74 74 73 72 72 70 70 70 70 70 70 70 70
37 39 37 34 32 32 36 35 35 36 32 34 28 31 42 57 58 58 60 63 64 65 67 69 70 70 70 70 71 73 73 74 74 74 74 73 72 72 71 72 71 70 70 70 71 70 70 70 70
33 33 36 38 37 37 37 37 36 35 35 35 34 34 40 50 55 56 54 54 60 63 65 68 69 69 69 69 69 70 69 70 71 71 71 71 68 68 70 70 70 70 70 70 70 71 70 69 67
30 30 36 35 34 34 33 32 33 34 32 35 34 33 33 38 45 50 55 55 56 60 63 66 68 68 68 67 69 70 69 68 68 68 68 67 66 66 68 66 67 67 69 66 68 69 69 67 67
18 20 19 23 23 28 28 29 29 30 32 34 34 37 33 37 38 43 48 50 58 61 63 64 65 66 66 64 67 68 67 68 67 67 66 66 65 64 64 65 65 65 65 65 65 66 67 66 67
16 17 18 18 16 17 17 16 17 16 19 22 24 30 36 35 40 42 42 43 49 60 63 64 62 62 63 62 64 66 66 66 66 66 66 65 64 64 64 64 63 64 64 64 64 64 65 66 66
20 20 18 17 16 16 15 15 18 18 24 21 21 23 30 36 40 39 42 47 51 57 64 65 65 62 60 59 61 62 64 63 64 65 66 66 64 64 63 62 62 62 64 64 64 64 64 65 65
21 15 15 13 15 15 17 15 15 18 21 21 20 23 26 35 37 37 40 45 52 52 62 66 66 65 63 61 62 61 61 62 62 63 65 65 64 63 62 61 61 61 62 63 63 63 62 62 63
16 14 6 10 14 12 17 13 18 21 20 22 20 20 22 26 35 37 39 42 50 53 59 65 65 65 62 61 62 62 64 64 63 64 65 65 65 64 62 61 61 61 62 62 63 62 61 62 62
16 10 12 12 13 13 13 12 14 17 17 18 18 17 19 20 25 36 40 42 43 51 56 61 65 64 63 61 62 63 64 64 65 65 65 65 65 65 64 62 62 61 62 61 62 62 62 60 61
16 15 14 14 16 16 16 16 18 19 18 18 18 19 20 19 20 25 32 40 44 48 53 58 60 64 64 63 64 65 66 66 66 66 66 66 66 65 64 64 63 62 61 62 62 62 62 61 61
20 19 17 18 18 18 17 18 19 19 18 17 19 20 21 22 21 23 24 34 44 49 50 54 57 59 64 63 64 65 65 66 66 67 66 67 68 66 65 65 64 63 61 62 62 62 61 61 61
19 19 19 22 24 22 22 21 21 19 18 18 19 20 20 21 21 19 22 25 33 40 51 52 57 60 63 63 62 61 62 64 64 66 66 67 67 68 66 65 65 64 63 61 62 62 61 61 61
21 20 22 23 24 23 22 18 18 18 18 17 18 18 19 19 19 19 19 22 26 32 42 52 54 60 64 64 63 62 62 63 62 62 63 65 67 68 68 65 65 66 65 64 63 62 61 60 60
23 23 25 23 24 21 22 16 18 17 15 16 15 15 16 17 18 20 16 17 18 20 29 48 53 59 64 65 63 61 59 59 60 61 62 63 66 69 68 67 66 66 66 65 64 64 62 61 62
22 26 23 23 25 24 23 16 16 18 16 15 14 14 22 36 38 38 37 30 20 17 22 39 53 55 61 65 63 62 58 57 60 61 62 64 66 69 68 68 67 67 66 65 65 63 62 61 60
24 21 23 25 21 19 20 16 15 15 14 18 20 35 39 38 38 38 38 38 38 30 20 29 46 53 56 62 62 60 59 57 59 62 62 65 66 68 69 68 67 67 66 65 65 65 63 62 61
17 19 14 15 16 14 17 17 15 19 21 26 37 38 39 38 37 36 36 39 40 40 32 41 48 53 55 59 60 60 58 55 57 61 62 65 65 66 67 67 67 67 66 66 67 65 63 63 61
17 18 16 13 15 13 19 19 19 22 36 39 39 39 38 36 34 35 36 39 41 42 41 26 36 53 55 56 58 58 56 55 59 62 64 65 66 66 67 67 67 67 66 66 66 64 64 62 61
20 16 21 21 23 20 21 21 24 25 36 37 36 35 34 35 37 37 38 42 44 44 43 39 31 49 54 56 57 57 57 58 60 63 65 66 66 67 67 67 67 67 67 66 66 64 62 62 61
23 25 21 21 12 14 20 22 21 23 24 35 35 35 38 39 39 40 41 43 45 44 44 47 39 42 52 55 55 57 59 59 61 65 66 66 66 67 67 67 66 66 66 66 65 64 62 61 60
21 23 28 25 27 20 19 20 27 31 35 35 35 37 39 39 40 41 43 44 44 44 42 48 39 46 50 51 56 58 61 62 64 65 66 66 66 67 67 66 66 66 65 65 64 63 62 61 60
26 26 26 21 20 26 24 21 27 35 36 37 37 39 40 39 42 43 46 47 45 45 43 51 47 49 50 53 59 62 63 64 65 65 66 66 66 67 67 66 66 65 65 64 62 61 61 61 60

GFSSGP_sfc_dewp_072.txt.gz
Dewpoint
62 50 41 39 28 27 23 23 25 23 20 20 21 21 30 29 44 41 54 56 59 62 72 76 76 76 76 76 76 75 75 75 75 75 75 75 75 75 74 74 73 71 70 67 65 65 64 62 62
61 44 35 33 28 22 18 25 23 23 23 24 24 23 24 24 30 52 53 56 58 61 71 74 76 76 76 76 75 75 75 75 75 75 75 75 74 74 73 73 72 70 68 66 66 64 63 63 62
54 46 30 30 28 21 19 24 23 24 24 24 23 21 23 44 50 53 55 59 58 63 70 73 75 76 76 76 75 75 75 75 75 75 75 75 74 74 73 73 72 69 68 66 65 64 64 64 63
46 44 36 28 23 26 24 24 23 22 22 21 21 21 25 48 52 56 57 59 58 64 69 72 75 76 76 76 75 75 75 75 75 75 75 75 74 74 73 73 72 70 68 67 65 64 65 64 64
41 38 32 31 25 27 25 24 22 22 21 22 25 21 23 44 59 58 57 58 57 64 67 71 75 75 76 76 75 75 75 74 74 75 75 75 74 74 73 73 72 70 69 67 66 66 67 67 66
39 34 29 26 17 24 25 24 25 24 25 27 26 22 25 56 58 57 58 57 57 62 66 70 74 75 75 75 75 75 75 74 74 74 74 75 75 74 73 73 72 71 70 69 68 68 68 68 68
39 33 31 28 24 26 25 30 29 27 29 32 29 23 32 44 58 57 55 56 61 63 65 69 72 74 75 75 75 75 75 74 74 74 74 74 74 74 74 73 72 71 71 70 69 69 69 69 69
44 39 36 33 28 27 31 35 34 31 34 33 30 29 31 52 56 57 59 60 61 63 66 68 70 71 72 73 75 75 75 75 74 74 74 74 74 74 74 73 72 71 71 70 70 70 70 69 69
41 40 37 34 31 32 36 36 37 37 35 37 34 34 39 58 57 58 59 62 63 64 66 68 69 70 70 70 73 74 74 75 75 75 74 73 73 73 73 73 72 71 71 70 70 71 70 70 69
33 34 36 38 36 36 36 37 36 36 34 35 36 38 37 55 57 56 55 55 61 62 66 68 68 69 69 69 70 71 72 72 73 73 73 73 72 71 71 72 72 71 71 71 71 71 71 69 68
29 32 35 35 33 34 31 29 31 31 30 33 34 34 34 39 48 56 55 55 57 59 64 67 68 68 68 67 68 70 70 69 69 69 69 70 68 69 70 69 70 69 70 68 69 70 69 68 68
18 23 18 19 18 18 20 21 19 21 25 29 25 25 36 36 39 46 53 55 57 59 62 64 67 68 67 66 67 68 68 68 68 68 67 67 65 65 66 66 66 66 67 67 66 67 68 68 67
16 19 19 19 18 16 16 16 17 17 19 23 23 24 26 32 39 48 48 50 54 58 61 63 64 65 66 65 66 66 66 66 66 67 67 66 65 64 64 65 65 65 65 65 65 65 66 67 67
21 20 18 16 15 16 15 14 16 18 22 20 23 23 24 27 38 48 51 49 47 52 60 61 63 63 63 64 64 64 65 64 65 66 66 66 64 64 63 63 63 63 64 64 64 64 65 65 66
21 14 12 12 14 14 16 15 15 19 21 22 22 22 23 26 30 37 50 53 49 51 57 63 63 62 61 62 63 64 64 63 64 64 66 65 64 64 63 62 62 62 63 64 64 64 64 64 64
16 11 4 6 14 13 16 13 17 18 18 21 20 19 20 22 24 28 37 47 50 52 58 64 65 64 62 60 61 64 64 64 62 63 64 65 65 64 63 62 61 62 62 63 63 63 63 63 63
16 12 12 13 15 14 16 13 17 19 19 19 19 21 21 21 25 28 30 32 39 44 49 58 66 65 64 63 61 62 64 65 64 64 64 64 65 64 63 62 62 62 62 62 62 62 62 61 62
14 16 15 15 16 19 19 19 20 21 20 20 20 20 22 24 24 26 28 30 35 42 48 53 64 66 65 64 63 63 65 66 66 65 64 65 65 65 64 64 63 62 62 62 62 62 63 62 62
18 18 17 18 19 22 20 21 21 24 21 19 20 21 23 25 25 29 30 31 34 43 46 47 57 63 65 64 63 64 62 63 65 64 65 66 66 66 65 64 64 63 62 62 62 62 62 62 62
19 17 18 21 23 22 22 21 22 22 22 19 19 21 21 27 24 26 26 29 31 34 40 45 48 55 63 65 64 64 63 63 63 65 66 67 67 67 65 65 64 64 63 62 63 63 62 62 62
20 19 19 22 25 25 23 21 20 19 21 21 19 20 21 21 27 26 30 32 29 30 34 42 46 49 57 64 64 63 64 64 64 64 66 67 67 68 67 66 66 64 64 62 63 63 62 62 62
21 22 24 23 21 18 23 19 19 18 19 19 17 17 18 19 35 38 38 39 39 36 32 32 43 49 51 60 63 63 62 61 61 63 64 65 67 68 68 66 66 66 65 65 63 63 63 64 62
18 24 23 22 22 24 23 20 18 18 17 19 18 16 25 37 38 38 38 38 39 41 39 36 37 48 52 56 64 63 62 61 61 62 63 64 65 66 68 67 66 66 66 66 65 64 64 64 63
25 20 18 23 21 17 18 19 16 16 16 19 19 25 36 38 38 37 37 38 38 38 41 43 41 39 51 55 61 63 62 62 60 61 61 63 65 67 68 68 67 67 67 66 66 66 65 64 64
19 17 14 10 13 13 18 18 17 20 20 24 24 34 38 38 37 36 35 35 36 37 39 42 44 43 44 54 57 64 63 63 60 61 60 63 65 66 68 68 68 67 67 67 66 66 65 64 63
19 19 17 12 15 11 15 15 16 21 23 33 39 39 38 37 35 37 39 40 40 41 42 44 45 45 42 46 54 59 63 62 60 59 60 62 64 66 68 68 68 68 67 67 67 66 66 64 64
21 17 20 17 20 18 19 20 21 21 26 36 36 36 35 36 39 39 39 41 42 43 43 45 46 46 47 42 52 56 59 61 60 60 62 63 65 66 68 68 68 68 67 67 67 66 65 65 64
23 23 20 19 12 10 16 19 19 22 21 29 33 32 34 39 40 39 38 41 43 44 45 46 46 45 46 48 47 54 58 60 59 61 63 64 66 67 67 67 67 67 67 67 67 66 64 64 63
20 22 27 23 21 16 16 15 26 25 26 29 32 34 37 39 39 40 40 46 46 46 46 46 47 47 47 50 47 54 57 59 60 61 63 65 66 67 67 67 67 67 66 66 66 65 64 62 62
23 24 24 21 20 25 23 20 25 27 29 35 35 34 38 41 42 41 44 48 46 47 46 46 49 51 48 48 48 55 59 60 61 62 64 66 66 67 67 67 67 66 66 65 65 64 63 62 62

GFSSGP_sfc_dewp_075.txt.gz
Dewpoint
59 47 40 40 25 26 20 18 25 22 20 21 21 21 21 23 30 31 57 59 54 59 71 75 76 76 75 75 75 75 75 76 76 76 76 76 76 76 76 75 75 73 71 69 66 65 64 63 62
55 42 36 35 20 13 15 23 21 22 23 24 24 24 23 23 25 29 45 58 54 63 73 73 76 76 75 75 75 75 75 75 75 76 76 76 75 75 75 74 73 71 69 67 66 65 64 63 63
52 43 32 29 27 12 16 23 23 23 22 23 24 24 23 28 43 38 54 57 55 63 70 74 76 75 76 75 75 75 75 75 75 75 75 75 75 74 74 74 73 71 68 67 66 65 64 64 64
47 42 36 26 21 26 22 25 25 22 19 23 26 27 26 43 49 56 57 55 55 59 66 74 76 75 75 75 75 75 75 75 75 75 75 74 74 74 74 73 73 71 69 68 66 66 66 65 65
41 40 25 27 23 25 25 23 24 22 22 23 31 30 31 41 56 59 57 55 54 58 64 71 75 75 75 76 75 75 75 75 75 75 75 74 74 74 74 73 73 71 70 69 67 68 68 68 66
37 36 27 17 18 22 23 24 26 27 29 31 32 30 34 39 57 57 56 55 53 60 65 69 75 75 75 75 75 75 75 74 74 74 74 74 74 74 74 73 72 72 71 70 69 69 69 69 68
32 35 28 28 25 21 21 30 28 29 32 33 34 31 37 38 57 58 57 57 56 61 65 69 71 74 75 75 75 75 75 74 74 74 74 74 74 74 73 73 72 72 71 70 69 69 69 69 69
42 37 30 30 25 25 29 32 34 33 33 36 35 34 34 40 58 58 57 58 57 60 61 67 70 69 71 72 75 75 75 75 74 74 74 74 74 74 74 73 72 72 71 71 70 70 70 69 69
44 33 29 31 30 28 34 33 36 37 36 35 35 34 34 36 57 56 56 56 58 59 62 65 67 69 70 69 71 75 75 75 75 75 75 73 71 71 71 71 72 72 72 71 71 71 70 70 69
33 28 28 35 33 32 34 35 33 33 34 33 34 34 30 29 48 51 54 53 56 57 61 64 67 69 70 68 70 71 70 71 71 71 72 71 71 72 70 71 72 72 72 71 71 71 71 69 61
30 27 34 36 35 30 31 29 31 32 32 33 30 26 25 29 37 44 49 53 52 58 62 63 69 70 69 66 68 69 69 69 71 72 73 72 71 71 71 69 70 70 71 66 67 66 63 61 61
21 25 22 27 21 19 22 19 22 26 29 28 23 25 26 28 32 41 47 50 55 56 61 63 67 69 70 66 66 67 66 68 69 69 73 71 70 70 69 67 66 69 66 66 66 62 64 64 63
18 18 19 19 17 17 18 17 19 22 25 23 23 24 24 25 29 41 52 46 48 57 59 61 66 68 69 70 66 66 68 66 66 67 69 69 67 68 67 67 65 64 64 64 64 63 64 64 64
20 19 18 17 16 16 15 16 17 19 24 21 22 24 23 28 30 38 46 54 51 52 55 62 65 66 68 68 69 68 68 66 65 65 66 69 66 67 64 65 63 62 62 62 62 62 62 62 62
21 16 14 12 13 14 15 14 15 21 22 22 30 31 23 24 24 30 36 48 53 50 55 61 66 66 68 67 68 67 66 65 64 64 67 67 68 67 66 63 63 62 64 65 64 64 64 62 62
17 14 5 10 15 15 15 10 16 22 23 21 23 22 23 23 26 29 32 39 50 50 53 56 57 65 67 66 66 64 66 65 64 64 65 66 67 68 67 63 62 62 63 62 62 62 62 62 62
18 12 15 15 18 18 17 17 19 23 24 25 27 25 22 23 28 33 31 35 42 48 49 54 59 63 68 67 64 65 66 65 65 64 64 66 66 66 67 62 63 65 62 62 63 63 63 63 63
14 15 16 15 16 19 18 18 20 22 23 24 26 27 26 25 27 31 32 36 40 44 51 50 57 61 69 68 67 63 62 63 64 63 64 65 66 66 66 64 64 65 63 63 64 65 64 63 62
17 18 16 17 18 21 19 19 19 21 23 22 23 28 30 29 28 27 31 36 38 45 49 52 53 59 66 66 65 64 63 63 63 64 65 65 65 65 66 64 65 66 66 66 67 66 66 64 64
19 17 16 19 21 20 18 19 23 23 25 25 24 24 30 30 28 27 33 39 44 46 52 53 55 55 60 66 68 67 66 65 65 65 67 66 67 67 66 67 67 67 65 68 67 67 64 64 64
19 18 18 17 21 21 22 14 19 21 20 24 25 25 26 27 26 33 39 44 44 46 48 50 53 55 58 62 63 68 67 67 66 65 66 68 68 67 68 68 68 68 67 66 68 67 67 63 64
16 21 19 21 18 11 20 8 16 18 21 21 23 24 24 25 34 39 42 42 43 43 45 48 53 55 52 55 59 66 61 62 63 66 66 67 68 67 68 69 70 70 67 68 68 67 66 66 64
16 23 22 20 18 20 15 16 14 21 17 19 22 24 26 29 37 40 39 40 41 42 43 46 51 54 55 56 58 55 64 62 64 64 70 71 70 69 68 70 70 70 68 69 69 68 67 65 65
24 21 20 22 19 12 14 14 10 14 19 21 20 22 27 34 38 39 39 41 42 43 44 46 50 52 54 54 55 60 64 65 61 65 65 65 66 69 71 70 70 70 70 69 69 68 67 67 66
20 21 14 10 8 5 19 15 14 20 20 19 19 23 31 36 37 37 39 40 42 43 44 45 48 51 53 53 54 56 61 66 67 67 64 66 64 66 70 71 70 69 70 70 70 69 68 68 67
21 21 17 13 7 6 14 12 12 19 21 23 25 34 37 35 35 38 40 41 42 46 47 47 47 49 51 52 53 54 59 55 60 66 64 64 64 66 71 70 70 70 70 70 70 68 68 69 68
21 20 22 19 19 17 14 14 17 18 21 26 28 34 32 35 37 40 41 43 44 49 50 50 50 50 51 52 55 55 55 59 61 66 66 64 68 66 70 70 70 70 70 70 71 69 69 69 69
25 25 23 28 18 14 9 12 12 17 19 25 26 29 32 34 36 40 42 44 46 48 48 48 49 50 51 52 53 53 56 56 60 64 66 65 67 69 69 69 70 70 70 70 71 70 70 69 66
23 24 28 27 24 15 10 11 23 23 23 27 29 33 30 33 37 40 42 43 43 42 43 47 46 48 50 52 54 55 56 57 61 63 65 66 68 69 68 69 69 70 70 70 70 70 69 67 66
26 25 26 23 17 23 21 19 24 26 26 33 30 28 31 39 39 40 41 43 43 43 44 45 46 46 50 53 56 58 58 58 61 64 65 67 68 67 66 68 69 69 69 70 69 69 67 65 65